This is the latest recevied weather packets stored in our database for station/object GBTWP-2. If no packets are shown the sender has not sent any weather packets the latest 10 day(s).
| Time | Temp. | Humidity | Pressure | Rain* | Wind** | Luminosity | Snow |
|---|---|---|---|---|---|---|---|
| 1777128902 | 7.22° C | 94% | 1016 hPa | 0 mm | - | 49 W/m² | - |
| 1777128602 | 7.22° C | 94% | 1015.9 hPa | 0 mm | - | 49 W/m² | - |
| 1777128302 | 7.22° C | 94% | 1015.9 hPa | 0 mm | - | 53 W/m² | - |
| 1777128002 | 7.22° C | 95% | 1015.9 hPa | 0 mm | - | 49 W/m² | - |
| 1777126502 | 7.22° C | 95% | 1015.7 hPa | 0 mm | - | 42 W/m² | - |
| 1777126202 | 7.22° C | 95% | 1015.9 hPa | 0 mm | - | 52 W/m² | - |
| 1777125903 | 7.22° C | 95% | 1015.9 hPa | 0 mm | - | 47 W/m² | - |
| 1777125602 | 7.22° C | 95% | 1015.9 hPa | 0 mm | - | 29 W/m² | - |
| 1777125301 | 7.22° C | 96% | 1015.8 hPa | 0 mm | - | 29 W/m² | - |
| 1777125002 | 7.22° C | 96% | 1015.7 hPa | 0 mm | - | 32 W/m² | - |
| 1777124702 | 7.78° C | 96% | 1015.9 hPa | 0 mm | - | 36 W/m² | - |
| 1777123802 | 8.33° C | 96% | 1015.5 hPa | 0 mm | - | 29 W/m² | - |
| 1777123202 | 8.33° C | 96% | 1015.3 hPa | 0 mm | - | 26 W/m² | - |
| 1777122302 | 8.89° C | 96% | 1015.2 hPa | 0 mm | - | 18 W/m² | - |
| 1777121401 | 8.89° C | 96% | 1014.6 hPa | 0 mm | - | 24 W/m² | - |
| 1777121102 | 8.89° C | 96% | 1014.4 hPa | 0 mm | - | 25 W/m² | - |
| 1777120802 | 8.89° C | 96% | 1014.3 hPa | 0 mm | - | 23 W/m² | - |
| 1777120502 | 9.44° C | 96% | 1014.3 hPa | 0 mm | - | 18 W/m² | - |
| 1777120202 | 9.44° C | 97% | 1014.2 hPa | 0 mm | - | 21 W/m² | - |
| 1777119902 | 9.44° C | 97% | 1014.1 hPa | 0 mm | - | 18 W/m² | - |
| 1777119002 | 9.44° C | 97% | 1013.8 hPa | 0 mm | - | 16 W/m² | - |
| 1777118701 | 9.44° C | 97% | 1013.8 hPa | 0 mm | - | 15 W/m² | - |
| 1777118101 | 9.44° C | 97% | 1013.7 hPa | 0 mm | - | 11 W/m² | - |
| 1777117202 | 10° C | 97% | 1013.2 hPa | 0 mm | - | 7 W/m² | - |
| 1777116902 | 10° C | 97% | 1013.3 hPa | 0 mm | - | 5 W/m² | - |
* Rain latest hour (hover to see other rain measurements)
** Current wind speed in m/s (hover to see current wind gust speed)